Regional Weather Roundup
Issued by NWS Sterling, VA

Home | Current Version | Previous Version | Graphics & Text | Print | Product List | Glossary On
Versions: 1 2 3 4 5 6 7 8 9 10 11 12 13 14 15 16 17 18 19 20 21 22 23 24 25 26 27 28 29 30 31 32 33 34 35 36 37 38 39 40 41 42 43
000
ASUS41 KLWX 261310
RWRLWX

REGIONAL WEATHER ROUNDUP
NATIONAL WEATHER SERVICE BALTIMORE MD/WASHINGTON DC
800 AM EST FRI DEC 26 2014

Note: "FAIR" indicates few or no clouds below 12,000 feet
with no significant weather and/or obstructions to visibility.
 TC=TEMPERATURE CELSIUS

 * =Non NWS site. Station does not report precipitation (e.g. rain,
    snow, etc.), thunder, or fog.

DCZ001-MDZ009-015-VAZ040>042-051-053>054-261400-
WASHINGTON METRO

CITY           SKY/WX    TMP DP  RH WIND       PRES   REMARKS
WASHINGTON NAT CLEAR     37  29  72 S5        30.33R
DULLES         CLEAR     27  25  92 CALM      30.31R
ANDREWS AFB    CLEAR     30  27  88 W3        30.31R
FT BELVOIR     CLEAR     28  27  95 CALM      30.33R
QUANTICO       CLEAR     31  27  85 NW5       30.34R
COLLEGE PARK*  CLEAR     30  30 100 CALM      30.31R
LEESBURG*      CLEAR     30  30 100 CALM      30.31R
MANASSAS*      CLEAR     25  25 100 CALM      30.32R
GAITHERSBURG*  CLEAR     28  25  86 CALM      30.33R

$$

MDZ006>007-011-014-261400-
BALTIMORE METRO

CITY           SKY/WX    TMP DP  RH WIND       PRES   REMARKS
BWI AIRPORT    CLEAR     32  29  88 SW3       30.30R
MD SCIENCE CTR   N/A     37  29  72 MISG      30.30R
MARTIN STATE   CLEAR     34  30  86 CALM      30.32R
ANNAPOLIS      CLEAR     33  30  88 CALM      30.31R
FORT MEADE*    CLEAR     27  27 100 CALM      30.33R

$$

MDZ012-015-019>023-261400-
MARYLAND EASTERN SHORE

CITY           SKY/WX    TMP DP  RH WIND       PRES   REMARKS
OCEAN CITY     CLEAR     30  28  92 W3        30.33R
SALISBURY      CLEAR     31  27  85 CALM      30.32R
BAY BRIDGE AP*   N/A     36  32  87 SW3       30.31R
CAMBRIDGE*     CLEAR     32  32 100 CALM      30.31R
EASTON*        CLEAR     32  32 100 SW3       30.34R

$$

MDZ017>025-261400-
SOUTHERN MARYLAND

CITY           SKY/WX    TMP DP  RH WIND       PRES   REMARKS
PATUXENT RIVER PTCLDY    29  27  92 SW5       30.32R
ST INIGOES     CLEAR     30  26  85 CALM      30.32R
LEONARDTOWN*   CLEAR     30  28  93 CALM      30.34R

$$

MDZ003>005-261400-
NORTH CENTRAL MARYLAND

CITY           SKY/WX    TMP DP  RH WIND       PRES   REMARKS
FREDERICK*     CLEAR     30  27  86 S3        30.32R
HAGERSTOWN APT CLEAR     35  26  69 CALM      30.29R
WESTMINSTER*   CLEAR     30  28  93 CALM      30.27R

$$

MDZ501>502-261400-
WESTERN MARYLAND

CITY           SKY/WX    TMP DP  RH WIND       PRES   REMARKS
OAKLAND*       CLEAR     30 N/A N/A W9        30.23R WCI  22
CUMBERLAND*    CLEAR     28  28 100 CALM      30.35R

$$

VAZ025>031-261400-
SHENANDOAH VALLEY

CITY           SKY/WX    TMP DP  RH WIND       PRES   REMARKS
WINCHESTER*    CLEAR     28  23  80 CALM      30.30R
FRONT ROYAL*   FAIR      28  27  93 CALM      30.29R
LURAY*         FAIR      27  27 100 CALM      30.29S
NEW MARKET*    FAIR      22  21  94 CALM      30.30R
STAUNTON*      PTCLDY    24  21  89 CALM      30.30S
WAYNESBORO*    FAIR      26  24  93 CALM      30.28S

$$

WVZ021-048>050-054>055-261400-
EASTERN WEST VIRGINIA PANHANDLE

CITY           SKY/WX    TMP DP  RH WIND       PRES   REMARKS
MARTINSBURG    CLEAR     26  22  84 CALM      30.29R
PETERSBURG*    CLEAR     22  21  98 CALM      30.32R

$$

VAZ036>039-050-261400-
CENTRAL FOOTHILLS

CITY           SKY/WX    TMP DP  RH WIND       PRES   REMARKS
CHARLOTTESVILL CLEAR     29  27  92 NW5       30.29R
CULPEPER*      PTCLDY    25  23  93 CALM      30.32R
ORANGE*        CLEAR     27  27 100 CALM      30.32R
GORDONSVILLE*  FAIR      24  23  95 CALM      30.30S
WARRENTON*     FAIR      25  25 100 CALM      30.31R

$$

VAZ055>057-261400-
NORTH AND CENTRAL PIEDMONT

CITY           SKY/WX    TMP DP  RH WIND       PRES   REMARKS
FREDERICKSBRG* PTCLDY    29  29 100 CALM      30.32S
STAFFORD*      PTCLDY    25  25 100 CALM      30.37R

$$

NCZ024-NYZ072-PAZ021-071-VAZ022-071-261400-
OTHER REGIONAL OBSERVATIONS

CITY           SKY/WX    TMP DP  RH WIND       PRES   REMARKS
NEW YORK CITY  CLEAR     40  27  59 W8        30.26R
PHILADELPHIA   CLEAR     37  28  70 W8        30.30R
PITTSBURGH     PTCLDY    30  27  88 CALM      30.27R
ROANOKE        PTCLDY    31  26  82 NW3       30.33R
RICHMOND       PTCLDY    34  29  82 CALM      30.33R
RALEIGH        MOCLDY    30  28  92 CALM      30.34R

$$

ANZ530>537-261400-
MARINE OBSERVATIONS

STATION/POSITION TIME  TEMP    WIND        PRES
                       AIR SEA DIR/SP/G
                 (UTC) (F)     (DEG/KT/KT) (MB)
THOMAS PT LIGHT  1300   39 42  250/  5/  6 1027.5R
BALT KEY BRIDGE  1300   38     230/  6/  7 1025.9R
COVE POINT       1300   40     300/  4/  5 1026.4R
LEWISETTA        1300   35 44  260/  4/  5 1027.0R
SOLOMONS ISLAND  1300      43                N/A
PINEY POINT      1300          300/  4/  4   N/A

$$




USA.gov is the U.S. government's official web portal to all federal, state and local government web resources and services.